Flag for USA

Past Weather in Vincennes, Indiana, USA — Yesterday and Last 2 Weeks

Now
72 °F

Partly sunny.


Feels Like: 72 °F
Forecast: 84 / 71 °F
Wind: 5 mph from South

Location: Lawrenceville-Vincennes International Airport

Current Time: Jul 12, 2020 at 10:29:00 am

Latest Report: Jul 12, 2020 at 10:09 am


Visibility: 10 mi

Pressure: 29.85 "Hg

Humidity: 81%

Dew Point: 66 °F

Location of VincennesLocation

Past Weather in Vincennes — Graph

°F

Vincennes Temperature Yesterday

Maximum temperature yesterday: 92 °F (at 3:53 pm)
Minimum temperature yesterday: 67 °F (at 6:53 am)
Average temperature yesterday: 79 °F

High & Low Weather Summary for the Past Weeks

 TemperatureHumidityPressure
High94 °F (Jul 5, 4:53 pm)100% (Jun 27, 4:13 pm)30.03 "Hg (Jun 27, 4:13 pm)
Low64 °F (Jul 12, 5:53 am)42% (Jul 3, 1:53 pm)29.79 "Hg (Jun 28, 3:53 am)
Average79 °F77%29.91 "Hg
* Reported Jun 27 8:53 am — Jul 12 8:53 am, Vincennes. Weather by CustomWeather, © 2020

Note: Actual official high and low records may vary slightly from our data, if they occured in-between our weather recording intervals... More about our weather records

Vincennes Weather History for the Previous 24 Hours

Scroll right to see more
 ConditionsComfort  
Time TempWeatherWind HumidityBarometerVisibility
8:53 am
Sun, Jul 12
69 °FPartly sunny.8 mph90%29.82 "Hg10 mi
7:53 am67 °FOvercast.9 mph100%29.83 "Hg10 mi
6:53 am66 °FCloudy.6 mphN/A29.83 "Hg10 mi
5:53 am64 °FClear.7 mphN/A29.81 "Hg10 mi
4:53 am66 °FPassing clouds.10 mphN/A29.83 "Hg10 mi
3:53 am66 °FPartly cloudy.6 mphN/A29.83 "Hg10 mi
2:53 am66 °FLight rain. Partly cloudy.5 mphN/A29.85 "Hg10 mi
2:05 am66 °FThundershowers. Passing clouds.3 mph100%29.87 "Hg10 mi
1:53 am66 °FThunderstorms. Passing clouds.No wind96%29.88 "Hg9 mi
1:33 am67 °FThunderstorms. Mostly cloudy.12 mph90%29.90 "Hg7 mi
1:12 am71 °FThundershowers. Passing clouds.15 mph78%29.91 "Hg1 mi
1:00 am70 °FThundershowers. Passing clouds.N/A90%29.94 "Hg10 mi
11:53 pm
Sat, Jul 11
68 °FMild.5 mph93%29.84 "Hg10 mi
10:53 pm69 °FClear.10 mph90%29.87 "Hg10 mi
10:34 pm70 °FClear.12 mph84%29.89 "Hg10 mi
9:53 pm70 °FThundershowers. Partly cloudy.8 mph84%29.87 "Hg10 mi
9:25 pm73 °FThunderstorms. Mostly cloudy.25 mph74%29.88 "Hg8 mi
8:53 pm85 °FScattered clouds.7 mph61%29.85 "Hg10 mi
7:53 pm88 °FSunny.8 mph57%29.83 "Hg0 mi
6:53 pm90 °FScattered clouds.10 mph50%29.84 "Hg0 mi
5:53 pm92 °FSunny.12 mph46%29.85 "Hg0 mi
4:53 pm90 °FHaze.9 mph48%29.88 "Hg0 mi
3:53 pm92 °FHaze.9 mph47%29.90 "Hg0 mi
2:53 pm91 °FPartly sunny.7 mph47%29.92 "Hg0 mi
1:53 pm90 °FSunny.12 mph45%29.94 "Hg0 mi
1:07 pm89 °FSunny.7 mph45%29.97 "Hg1 mi
12:53 pm88 °FSunny.10 mph46%29.95 "Hg10 mi
11:53 am85 °FSunny.8 mph51%29.96 "Hg10 mi
10:53 am83 °FSunny.7 mph57%29.96 "Hg10 mi
Weather by CustomWeather, © 2020

See weather overview